Weather History for KDEC - August, 2014

Change the Weather History Date:

Saturday, August 30, 2014

  Actual Average Record
Temperature  
Mean Temperature 78 °F 72 °F  
Max Temperature 84 °F 83 °F 96 °F (2013)
Min Temperature 72 °F 61 °F 48 °F (2004)
Degree Days  
Heating Degree Days 0 0  
Month to date heating degree days 0 0  
Since 1 June heating degree days 3 18  
Since 1 July heating degree days 2 1  
Cooling Degree Days 13 7  
Month to date cooling degree days 285 262  
Year to date cooling degree days 889 911  
Since 1 June cooling degree days 744 824  
Growing Degree Days 28 (Base 50)    
Moisture  
Dew Point 71 °F    
Average Humidity 79    
Maximum Humidity 93    
Minimum Humidity 65    
Precipitation  
Precipitation T in 0.14 in 2.64 in (2001)
Month to date precipitation 4.93 3.51  
Year to date precipitation 23.93 26.17  
Sea Level Pressure  
Sea Level Pressure 29.92 in    
Wind  
Wind Speed 12 mph (SSW)    
Max Wind Speed 20 mph    
Max Gust Speed 24 mph    
Visibility 10 miles    
Events      
T = Trace of Precipitation, MM = Missing Value Source: NWS Daily Summary

Daily Weather History Graph

Daily Weather History Graph

Search for Another Location

Airport or City:

Trip Planner

Search our weather history database for the weather conditions in past years. The results will help you decide how hot, cold, wet, or windy it might be!

Date:

Astronomy

Aug. 30, 2014 Rise Set
Actual Time 6:21 AM CDT 7:29 PM CDT
Civil Twilight 5:53 AM CDT 7:57 PM CDT
Nautical Twilight 5:20 AM CDT 8:30 PM CDT
Astronomical Twilight 4:45 AM CDT 9:05 PM CDT
Moon 11:08 AM CDT (8/30) 10:04 PM CDT (8/30)
Length of Visible Light 14h 03m
Length of Day
13h 08m
Waxing Crescent, 23% of the Moon is Illuminated
Aug 30
Waxing Crescent
Sep 2
First Quarter
Sep 8
Full
Sep 15
Last Quarter
Sep 24
New

Hourly Weather History & Observations

Time (CDT) Temp. Heat Index Dew Point Humidity Pressure Visibility Wind Dir Wind Speed Gust Speed Precip Events Conditions
12:54 AM 77.0 °F - 69.1 °F 76% 29.90 in 10.0 mi SSW 12.7 mph - N/A   Overcast
1:54 AM 75.9 °F - 69.1 °F 79% 29.89 in 10.0 mi South 10.4 mph - N/A   Clear
2:54 AM 75.9 °F - 69.1 °F 79% 29.90 in 10.0 mi SSW 13.8 mph - N/A   Partly Cloudy
3:54 AM 73.9 °F - 70.0 °F 87% 29.90 in 10.0 mi SSW 12.7 mph - 0.00 in   Overcast
4:54 AM 73.0 °F - 69.1 °F 87% 29.90 in 10.0 mi SSW 11.5 mph - N/A   Partly Cloudy
5:54 AM 73.0 °F - 69.1 °F 87% 29.91 in 10.0 mi SSW 13.8 mph - N/A   Mostly Cloudy
6:54 AM 72.0 °F - 69.1 °F 91% 29.93 in 10.0 mi SSW 10.4 mph - 0.00 in   Mostly Cloudy
7:54 AM 73.0 °F - 69.1 °F 87% 29.93 in 10.0 mi SSW 11.5 mph - N/A   Clear
8:54 AM 75.0 °F - 69.1 °F 82% 29.94 in 10.0 mi SSW 15.0 mph - N/A   Overcast
9:54 AM 78.1 °F - 70.0 °F 76% 29.94 in 10.0 mi SSW 11.5 mph - N/A   Mostly Cloudy
10:54 AM 81.0 °F 84.9 °F 71.1 °F 72% 29.95 in 10.0 mi SSW 11.5 mph 21.9 mph N/A   Mostly Cloudy
11:54 AM 82.0 °F 86.3 °F 71.1 °F 69% 29.94 in 10.0 mi SSW 16.1 mph 24.2 mph N/A   Scattered Clouds
12:54 PM 82.9 °F 88.0 °F 72.0 °F 69% 29.93 in 10.0 mi SSW 15.0 mph - N/A   Partly Cloudy
1:54 PM 84.0 °F 90.2 °F 73.0 °F 69% 29.91 in 10.0 mi South 12.7 mph - N/A   Scattered Clouds
2:54 PM 82.0 °F 86.7 °F 72.0 °F 71% 29.90 in 10.0 mi South 15.0 mph 24.2 mph N/A   Scattered Clouds
3:54 PM 84.0 °F 89.6 °F 72.0 °F 67% 29.89 in 10.0 mi SSW 16.1 mph - N/A   Partly Cloudy
4:54 PM 82.9 °F 88.8 °F 73.0 °F 72% 29.88 in 10.0 mi South 15.0 mph 20.7 mph N/A   Scattered Clouds
5:54 PM 81.0 °F 84.9 °F 71.1 °F 72% 29.88 in 10.0 mi South 11.5 mph 20.7 mph N/A   Partly Cloudy
6:54 PM 79.0 °F - 72.0 °F 79% 29.89 in 10.0 mi South 10.4 mph - N/A   Partly Cloudy
7:54 PM 78.1 °F - 72.0 °F 81% 29.91 in 10.0 mi South 9.2 mph - N/A   Partly Cloudy
8:54 PM 77.0 °F - 72.0 °F 84% 29.92 in 10.0 mi South 9.2 mph - N/A   Partly Cloudy
9:54 PM 75.9 °F - 72.0 °F 87% 29.93 in 10.0 mi South 4.6 mph - N/A   Mostly Cloudy
10:23 PM 75.9 °F - 72.0 °F 87% 29.95 in 10.0 mi South 6.9 mph - N/A   Scattered Clouds
10:54 PM 75.0 °F - 72.0 °F 90% 29.93 in 10.0 mi South 6.9 mph - N/A   Mostly Cloudy
11:01 PM 75.0 °F - 72.0 °F 90% 29.95 in 10.0 mi South 8.1 mph - N/A   Mostly Cloudy
11:54 PM 75.0 °F - 72.0 °F 90% 29.93 in 10.0 mi South 10.4 mph - N/A   Overcast